When you browse on this site, cookies collect data to enhance your experience and personalize the content and advertising you see.
Visit our Privacy Policy to learn more. By continuing to use the site, you agree to this use of cookies and data.
  • In Hungary
  • List of Countries
  • For 7 days
  • Water Temperature
  • Satellite Maps
  • Weather Map
  • News
  • Weather Widgets
  • user-avatar
    Login

    Hourly Weather Iquitos

    Today, 19 June, Wednesday

    Time Temperature Precipitation Wind Pressure Humidity
    00:00 +22°C° 0.1 mm 0 mps 753 mmHg 96%
    01:00 +22°C° 0 mm 0 mps 753 mmHg 97%
    02:00 +22°C° 0 mm 0 mps 752 mmHg 97%
    03:00 +22°C° 0 mm 0 mps 752 mmHg 98%
    04:00 +21°C° 0 mm 0 mps 752 mmHg 98%
    05:00 +22°C° 0 mm 0 mps 752 mmHg 97%
    06:00 +22°C° 0 mm 0 mps 753 mmHg 96%
    07:00 +23°C° 0 mm 0 mps 753 mmHg 96%
    08:00 +25°C° 0.5 mm 0 mps 753 mmHg 89%
    09:00 +27°C° 0.5 mm 0 mps 753 mmHg 82%
    10:00 +29°C° 0.5 mm 0 mps 753 mmHg 75%
    11:00 +29°C° 0.6 mm 0 mps 753 mmHg 72%
    12:00 +32°C° 0.6 mm 1 mps 752 mmHg 70%
    13:00 +32°C° 0.6 mm 1 mps 752 mmHg 67%
    14:00 +32°C° 0.1 mm 1 mps 751 mmHg 66%
    15:00 +32°C° 0.1 mm 1 mps 750 mmHg 65%
    16:00 +32°C° 0.1 mm 1 mps 749 mmHg 64%
    17:00 +30°C° 0.4 mm 1 mps 750 mmHg 74%
    18:00 +28°C° 0.4 mm 1 mps 751 mmHg 85%
    19:00 +24°C° 0.4 mm 0 mps 751 mmHg 95%
    20:00 +24°C° 0.5 mm 0 mps 752 mmHg 95%
    21:00 +23°C° 0.5 mm 0 mps 752 mmHg 96%
    22:00 +23°C° 0.5 mm 0 mps 753 mmHg 96%
    23:00 +23°C° 0.6 mm 0 mps 753 mmHg 97%

    Tomorrow, 20 June, Thursday

    Time Temperature Precipitation Wind Pressure Humidity
    00:00 +22°C° 0.6 mm 0 mps 753 mmHg 97%
    01:00 +22°C° 0.6 mm 0 mps 752 mmHg 98%
    02:00 +22°C° 0.5 mm 0 mps 752 mmHg 98%
    03:00 +22°C° 0.5 mm 0 mps 752 mmHg 98%
    04:00 +22°C° 0.5 mm 0 mps 752 mmHg 99%
    05:00 +22°C° 1.1 mm 0 mps 753 mmHg 99%
    06:00 +22°C° 1.1 mm 0 mps 753 mmHg 98%
    07:00 +22°C° 1.1 mm 0 mps 753 mmHg 98%
    08:00 +24°C° 0.8 mm 0 mps 754 mmHg 95%
    09:00 +25°C° 0.8 mm 0 mps 754 mmHg 91%
    10:00 +27°C° 0.8 mm 0 mps 754 mmHg 87%
    11:00 +29°C° 1.5 mm 1 mps 754 mmHg 87%
    12:00 +30°C° 1.5 mm 1 mps 753 mmHg 87%
    13:00 +30°C° 1.5 mm 1 mps 752 mmHg 87%
    14:00 +30°C° 0.5 mm 1 mps 752 mmHg 82%
    15:00 +30°C° 0.5 mm 1 mps 751 mmHg 78%
    16:00 +29°C° 0.5 mm 0 mps 751 mmHg 74%
    17:00 +27°C° 0 mm 0 mps 751 mmHg 80%
    18:00 +26°C° 0 mm 0 mps 751 mmHg 86%
    19:00 +24°C° 0 mm 0 mps 752 mmHg 92%
    20:00 +24°C° 0 mm 0 mps 752 mmHg 93%
    21:00 +23°C° 0 mm 0 mps 753 mmHg 95%
    22:00 +23°C° 0 mm 0 mps 753 mmHg 97%
    23:00 +23°C° 0.1 mm 0 mps 753 mmHg 97%

    Day after tomorrow, 21 June, Friday

    Time Temperature Precipitation Wind Pressure Humidity
    00:00 +23°C° 0.1 mm 0 mps 753 mmHg 97%
    01:00 +22°C° 0.1 mm 0 mps 753 mmHg 98%
    02:00 +22°C° 0 mm 0 mps 753 mmHg 98%
    03:00 +22°C° 0 mm 0 mps 753 mmHg 98%
    04:00 +22°C° 0 mm 0 mps 752 mmHg 98%
    05:00 +22°C° 0 mm 0 mps 753 mmHg 97%
    06:00 +23°C° 0 mm 0 mps 753 mmHg 96%
    07:00 +23°C° 0 mm 0 mps 754 mmHg 95%
    08:00 +25°C° 0.1 mm 0 mps 754 mmHg 86%
    09:00 +29°C° 0.1 mm 1 mps 755 mmHg 77%
    10:00 +31°C° 0.1 mm 1 mps 755 mmHg 68%
    11:00 +31°C° 1 mm 1 mps 754 mmHg 74%
    12:00 +30°C° 1 mm 1 mps 754 mmHg 79%
    13:00 +28°C° 1 mm 0 mps 753 mmHg 85%
    14:00 +28°C° 0.6 mm 0 mps 752 mmHg 85%
    15:00 +29°C° 0.6 mm 1 mps 752 mmHg 85%
    16:00 +29°C° 0.6 mm 1 mps 751 mmHg 84%
    17:00 +28°C° 0.2 mm 1 mps 752 mmHg 88%
    18:00 +26°C° 0.2 mm 1 mps 752 mmHg 91%
    19:00 +23°C° 0.2 mm 0 mps 753 mmHg 94%
    20:00 +25°C° 0.1 mm 1 mps 753 mmHg 95%
    21:00 +24°C° 0.1 mm 1 mps 754 mmHg 96%
    22:00 +24°C° 0.1 mm 1 mps 754 mmHg 97%
    23:00 +24°C° 0.2 mm 1 mps 754 mmHg 97%

    22 June, Saturday

    Time Temperature Precipitation Wind Pressure Humidity
    00:00 +22°C° 0.2 mm 0 mps 754 mmHg 98%
    01:00 +22°C° 0.2 mm 0 mps 754 mmHg 98%
    02:00 +22°C° 0.3 mm 0 mps 753 mmHg 98%
    03:00 +22°C° 0.3 mm 0 mps 753 mmHg 98%
    04:00 +22°C° 0.3 mm 0 mps 753 mmHg 98%
    05:00 +22°C° 0.3 mm 0 mps 754 mmHg 98%
    06:00 +22°C° 0.3 mm 0 mps 754 mmHg 98%
    07:00 +22°C° 0.3 mm 0 mps 755 mmHg 98%
    08:00 +23°C° 0.5 mm 0 mps 755 mmHg 97%
    09:00 +23°C° 0.5 mm 0 mps 755 mmHg 97%
    10:00 +26°C° 0.5 mm 1 mps 755 mmHg 96%
    11:00 +26°C° 1 mm 1 mps 755 mmHg 95%
    12:00 +27°C° 1 mm 1 mps 754 mmHg 94%
    13:00 +28°C° 1 mm 1 mps 754 mmHg 93%
    14:00 +28°C° 0.9 mm 1 mps 753 mmHg 93%
    15:00 +28°C° 0.9 mm 1 mps 753 mmHg 93%
    16:00 +26°C° 0.9 mm 0 mps 752 mmHg 93%
    17:00 +25°C° 0.5 mm 0 mps 752 mmHg 94%
    18:00 +23°C° 0.5 mm 0 mps 753 mmHg 95%
    19:00 +22°C° 0.5 mm 0 mps 753 mmHg 96%
    20:00 +22°C° 0 mm 0 mps 754 mmHg 96%
    21:00 +22°C° 0 mm 0 mps 754 mmHg 96%
    22:00 +22°C° 0 mm 0 mps 755 mmHg 96%
    23:00 +22°C° 0.3 mm 0 mps 755 mmHg 97%

    23 June, Sunday

    Time Temperature Precipitation Wind Pressure Humidity
    00:00 +22°C° 0.3 mm 0 mps 754 mmHg 97%
    01:00 +22°C° 0.3 mm 0 mps 754 mmHg 98%
    02:00 +22°C° 0.2 mm 0 mps 754 mmHg 98%
    03:00 +22°C° 0.2 mm 0 mps 753 mmHg 99%
    04:00 +22°C° 0.2 mm 0 mps 753 mmHg 99%
    05:00 +22°C° 0.3 mm 0 mps 754 mmHg 99%
    06:00 +22°C° 0.3 mm 0 mps 754 mmHg 99%
    07:00 +22°C° 0.3 mm 0 mps 755 mmHg 99%
    08:00 +23°C° 0.3 mm 0 mps 755 mmHg 98%
    09:00 +23°C° 0.3 mm 0 mps 755 mmHg 97%
    10:00 +24°C° 0.3 mm 0 mps 756 mmHg 96%
    11:00 +27°C° 0.9 mm 1 mps 755 mmHg 94%
    12:00 +27°C° 0.9 mm 1 mps 754 mmHg 91%
    13:00 +28°C° 0.9 mm 1 mps 753 mmHg 88%
    14:00 +28°C° 1.3 mm 1 mps 752 mmHg 89%
    15:00 +28°C° 1.3 mm 1 mps 752 mmHg 90%
    16:00 +26°C° 1.3 mm 0 mps 751 mmHg 91%
    17:00 +25°C° 1.3 mm 0 mps 751 mmHg 93%
    18:00 +24°C° 1.3 mm 0 mps 752 mmHg 95%
    19:00 +23°C° 1.3 mm 0 mps 752 mmHg 97%
    20:00 +23°C° 0.9 mm 0 mps 752 mmHg 97%
    21:00 +23°C° 0.9 mm 0 mps 753 mmHg 97%
    22:00 +23°C° 0.9 mm 0 mps 753 mmHg 97%
    23:00 +24°C° 0.8 mm 1 mps 753 mmHg 98%

    24 June, Monday

    Time Temperature Precipitation Wind Pressure Humidity
    00:00 +24°C° 0.8 mm 1 mps 753 mmHg 98%
    01:00 +24°C° 0.8 mm 1 mps 752 mmHg 99%
    02:00 +24°C° 0.4 mm 1 mps 752 mmHg 99%
    03:00 +24°C° 0.4 mm 1 mps 752 mmHg 99%
    04:00 +22°C° 0.4 mm 0 mps 752 mmHg 99%
    05:00 +22°C° 0 mm 0 mps 752 mmHg 99%
    06:00 +22°C° 0 mm 0 mps 753 mmHg 99%
    07:00 +22°C° 0 mm 0 mps 753 mmHg 99%
    08:00 +23°C° 0.2 mm 0 mps 753 mmHg 97%
    09:00 +23°C° 0.2 mm 0 mps 754 mmHg 96%
    10:00 +24°C° 0.2 mm 0 mps 754 mmHg 94%
    11:00 +25°C° 0.5 mm 0 mps 753 mmHg 89%
    12:00 +28°C° 0.5 mm 1 mps 752 mmHg 83%
    13:00 +30°C° 0.5 mm 1 mps 751 mmHg 78%
    14:00 +29°C° 0.8 mm 1 mps 751 mmHg 81%
    15:00 +29°C° 0.8 mm 1 mps 750 mmHg 84%
    16:00 +28°C° 0.8 mm 1 mps 749 mmHg 88%
    17:00 +25°C° 0.7 mm 0 mps 750 mmHg 91%
    18:00 +24°C° 0.7 mm 0 mps 750 mmHg 94%
    19:00 +23°C° 0.7 mm 0 mps 751 mmHg 97%
    20:00 +23°C° 0.8 mm 0 mps 751 mmHg 98%
    21:00 +23°C° 0.8 mm 0 mps 751 mmHg 98%
    22:00 +22°C° 0.8 mm 0 mps 752 mmHg 98%
    23:00 +22°C° 0.4 mm 0 mps 752 mmHg 98%
    Show more